Menu       Strona główna   X °F

Select another period ( hide this area )

Units Period Custom range Directly to
Metric English Both
Daily Weekly Monthly Yearly
use both date-selectors for a custom range
previous Day
With this date
Daily Summary for Sunday 14 July 2024
Time Temp. ( °F ) Dew pt. ( °F ) Wind ( mph ) From Gust ( mph ) Pressure ( in ) Humid.( % ) Rainrate ( in )
High69.6 63.0 3.7 WSW ( 17/108 ) 11.2 29.83 92 8.00
Average63.0 58.5 1.1 Calm #25/61 4.0 29.78 86 6.30
Low59.2 55.9 -   1.2 29.72 77 -
Daily Tabular details for Sunday 14 July 2024
Time Temp. ( °F ) Dew pt. ( °F ) Wind ( mph ) From Gust ( mph ) Pressure ( in ) Humid.( % ) Rainrate ( in )
00:00 63.9 57.9   Calm 1.9 29.83 81 -
00:15 63.9 57.9   Calm 1.9 29.83 81 -
00:30 63.1 57.0 1.2 NW 1.9 29.83 81 -
00:45 63.3 57.9   Calm 1.9 29.83 83 -
01:00 63.1 57.9 1.2 NE 3.1 29.83 84 -
01:15 62.6 57.9 1.2 ESE 1.9 29.83 85 -
01:30 62.6 57.9   Calm 1.9 29.83 85 -
01:45 62.4 57.9 1.9 ESE 1.9 29.83 85 -
02:00 62.8 57.9 1.2 WNW 6.8 29.83 86 -
02:15 62.4 57.9 1.2 WSW 6.8 29.83 86 -
02:30 62.1 57.9   Calm 3.7 29.83 86 -
02:45 62.1 57.9 1.2 NW 3.7 29.83 87 -
03:00 61.5 57.9   Calm 6.8 29.83 89 0.99
03:15 61.3 57.9   Calm 6.8 29.83 90 0.99
03:30 61.2 57.9 1.2 NW 3.1 29.83 90 2.01
03:45 61.0 57.9 1.2 NW 3.7 29.83 91 2.99
04:00 60.6 57.9 1.2 NW 3.7 29.83 91 5.00
04:15 60.4 57.9   Calm 3.7 29.83 91 5.00
04:30 60.3 57.0   Calm 1.2 29.83 91 4.02
04:45 60.3 57.9   Calm 3.1 29.83 92 2.01
05:00 60.3 57.9 1.2 ENE 3.1 29.83 92 -
05:15 60.3 57.0 1.2 North 3.1 29.83 92 -
05:30 60.1 57.0   Calm 1.9 29.82 92 -
05:45 60.3 57.9 1.2 NE 3.1 29.83 92 -
06:00 60.3 57.9 1.2 North 3.1 29.83 92 -
06:15 60.3 57.9   Calm 3.7 29.82 92 0.99
06:30 60.3 57.9 3.7 NE 3.7 29.82 92 0.99
06:45 60.3 57.9   Calm 1.9 29.81 92 0.99
07:00 60.3 57.9 1.9 ESE 3.1 29.82 92 2.01
14:45 64.2 60.1   Calm 3.1 29.77 88 -
15:00 64.6 61.0 1.2 West 3.1 29.76 89 -
15:15 65.7 61.0 1.2 WSW 3.7 29.75 87 -
15:30 65.1 60.1   Calm 3.7 29.75 86 -
15:45 65.7 61.0 1.9 SW 3.7 29.75 86 -
16:00 65.7 61.0 1.2 WSW 3.7 29.74 86 -
16:15 66.6 62.1 1.9 WSW 3.7 29.74 85 -
16:30 67.3 62.1 3.7 SW 5.0 29.74 83 -
16:45 69.4 63.0 1.9 SSW 3.7 29.73 81 -
17:00 69.6 62.1 1.9 WSW 6.8 29.73 77 -
17:15 68.2 62.1   Calm 3.1 29.73 80 -
17:30 68.9 62.1 3.1 SW 3.7 29.72 78 -
17:45 69.6 62.1   Calm 3.1 29.72 77 -
18:00 69.6 62.1   Calm 3.1 29.72 79 -
18:15 69.3 62.1   Calm 3.1 29.72 78 -
18:30 68.4 61.0   Calm 3.7 29.72 79 -
18:45 66.9 59.0 3.1 WSW 6.2 29.73 78 -
19:00 65.8 59.0   Calm 6.8 29.72 80 -
19:15 64.6 57.9 1.9 West 11.2 29.72 81 -
19:30 63.3 57.0 3.7 East 6.8 29.73 81 -
19:45 62.2 57.0 1.9 NNW 9.3 29.73 83 -
20:00 61.7 57.0 3.7 ESE 9.3 29.74 84 -
20:15 61.0 55.9 3.1 ENE 6.8 29.75 86 0.99
20:30 60.4 55.9 1.2 SSW 3.1 29.75 87 2.99
20:45 60.1 57.0 1.2 NW 3.7 29.75 89 7.01
21:00 60.1 57.0 1.9 WNW 3.7 29.75 90 8.00
21:15 59.7 57.0 1.9 West 3.7 29.75 90 7.01
21:30 59.5 55.9 1.9 NW 3.7 29.75 90 5.00
21:45 59.2 55.9   Calm 5.0 29.75 91 0.99
22:00 59.2 55.9   Calm 3.1 29.75 91 -
22:15 59.2 55.9   Calm 1.9 29.75 92 -
22:30 59.2 55.9   Calm 3.1 29.75 92 -

Download your copy of this data-set  from WeatherUnderground

Our weather-data as stored at Weather Underground

Klikk her. Alternativ webside om du vil se statistikk,rapport,graf,analyse og mye mer.